Vertical_Velocity
1 0 2 2 3 0 0 -1 -1 -0 -0 -3 -1 -0 1 -3 4 7 9 25 19 9
3 3 2 1 -0 1 1 -0 -2 -3 -4 -4 -1 -2 -1 0 -1 4 -2 3 -6 16
-8 -3 -1 1 0 -0 3 -4 -3 -1 -2 0 -4 1 4 6 1 -1 3 -8 -4 28
-3 -6 -3 -3 -2 -0 -1 2 -0 4 2 5 3 6 -1 5 3 3 -8 5 -4 1
-2 -2 -6 0 -1 -0 1 4 -2 5 6 11 1 3 2 1 -0 2 6 -2 -0 1
-1 -1 -0 -2 -5 -5 -2 -3 -2 -1 -2 9 -4 -3 4 -3 6 -0 4 7 -6 7
-2 -2 -3 -4 3 -0 -4 -3 0 -1 -2 -0 6 5 1 2 -1 -6 -1 -4 -2 -6
-1 -0 -1 -1 -3 -1 1 -1 -4 -2 -0 -1 -0 -0 -1 -0 1 -0 0 -5 3 -2
-3 -4 -3 1 1 0 -2 -1 1 3 1 0 0 -0 -1 -0 -3 -2 -1 2 2 4
-4 -1 0 -4 -4 -1 1 -1 -2 -1 -1 1 0 2 1 2 4 2 1 -0 -2 -5
5 2 -0 2 -3 -2 -1 1 0 1 2 1 -1 -1 -3 0 -3 -3 -2 -2 -1 0
-3 -3 0 5 3 -2 -1 -1 2 0 0 0 -0 0 3 2 2 3 3 3 1 -2
-1 1 -1 -4 -1 4 1 -2 -1 -0 0 0 -2 -2 -2 -3 -3 -1 0 1 2 3
1 2 2 2 0 -2 -1 3 4 2 1 0 -0 0 -2 -0 0 -1 -0 -0 -0 0
Height
1444 1443 1442 1442 1441 1440 1439 1438 1438 1437 1436 1435 1434 1433 1433 1434 1436 1438 1438 1437 1437 1435
1443 1442 1440 1439 1438 1437 1435 1434 1434 1433 1430 1429 1428 1426 1426 1426 1429 1431 1431 1431 1431 1428
1445 1443 1440 1438 1437 1436 1433 1432 1430 1428 1425 1425 1423 1421 1421 1420 1422 1426 1427 1429 1429 1422
1444 1443 1441 1438 1436 1434 1432 1430 1428 1425 1424 1422 1420 1419 1419 1418 1418 1421 1423 1423 1426 1425
1446 1444 1441 1438 1435 1433 1430 1427 1426 1425 1420 1420 1418 1416 1416 1417 1415 1418 1419 1420 1420 1420
1447 1444 1441 1439 1436 1434 1432 1430 1428 1426 1423 1421 1419 1417 1414 1414 1416 1416 1416 1417 1418 1417
1448 1445 1443 1441 1438 1436 1433 1431 1430 1428 1426 1423 1422 1420 1418 1419 1417 1416 1418 1417 1418 1415
1447 1445 1443 1440 1438 1435 1433 1431 1429 1428 1426 1423 1421 1419 1418 1418 1417 1416 1415 1416 1416 1415
1447 1444 1442 1440 1437 1434 1432 1431 1429 1426 1423 1422 1420 1418 1418 1418 1417 1416 1416 1415 1414 1415
1445 1443 1441 1438 1436 1434 1432 1430 1428 1426 1424 1422 1420 1419 1418 1418 1417 1416 1415 1415 1415 1415
1445 1442 1440 1437 1435 1433 1431 1429 1427 1426 1424 1423 1421 1419 1418 1418 1417 1417 1417 1417 1416 1416
1444 1442 1440 1437 1434 1432 1430 1429 1427 1425 1424 1423 1422 1421 1420 1420 1419 1418 1418 1417 1416 1415
1442 1440 1437 1436 1434 1432 1430 1428 1427 1426 1425 1423 1422 1421 1420 1419 1419 1418 1417 1416 1415 1414
1439 1438 1436 1434 1433 1432 1431 1430 1428 1426 1425 1423 1422 1421 1420 1419 1418 1416 1415 1413 1412 1411